Weather History for KP53 - October, 2012

Change the Weather History Date:

Friday, October 5, 2012

  Actual Average (KISQ) Record (KISQ)
Temperature  
Mean Temperature 44 °F -  
Max Temperature 48 °F 56 °F 74 °F (1967)
Min Temperature 39 °F 40 °F 22 °F (1965)
Degree Days  
Heating Degree Days 22    
Moisture  
Dew Point 27 °F    
Average Humidity 52    
Maximum Humidity 65    
Minimum Humidity 44    
Precipitation  
Precipitation 0.00 in - - ()
Sea Level Pressure  
Sea Level Pressure 29.88 in    
Wind  
Wind Speed 5 mph (SW)    
Max Wind Speed 10 mph    
Max Gust Speed 23 mph    
Averages and records for this station are not official NWS values.
T = Trace of Precipitation, MM = Missing Value Source: NWS Daily Summary

Daily Weather History Graph

Daily Weather History Graph

Search for Another Location

Airport or City:

Trip Planner

Search our weather history database for the weather conditions in past years. The results will help you decide how hot, cold, wet, or windy it might be!

Date:

Astronomy

Oct. 05, 2012 Rise Set
Actual Time 7:51 AM EDT 7:17 PM EDT
Civil Twilight 7:21 AM EDT 7:47 PM EDT
Nautical Twilight 6:46 AM EDT 8:22 PM EDT
Astronomical Twilight 6:10 AM EDT 8:57 PM EDT
Moon 10:24 PM EDT (10/5) 1:14 PM EDT (10/5)
Length of Visible Light 12h 26m
Length of Day
11h 26m
Waning Gibbous, 74% of the Moon is Illuminated
Oct 5
Waning Gibbous
Oct 8
Last Quarter
Oct 15
New
Oct 21
First Quarter
Oct 29
Full

Hourly Weather History & Observations

Time (EDT) Temp. Windchill Dew Point Humidity Pressure Visibility Wind Dir Wind Speed Gust Speed Precip Events Conditions
12:56 AM 48.0 °F - 30.9 °F 52% 29.87 in - Calm Calm - N/A   Unknown
1:56 AM 46.9 °F - 30.0 °F 52% 29.88 in - Variable 6.9 mph - N/A   Unknown
2:56 AM 44.1 °F 41.5 °F 28.9 °F 55% 29.89 in - South 4.6 mph - N/A   Unknown
3:56 AM 43.0 °F 41.3 °F 28.9 °F 58% 29.87 in - Variable 3.5 mph - N/A   Unknown
4:56 AM 41.0 °F 38.0 °F 28.9 °F 62% 29.88 in - SSW 4.6 mph - N/A   Unknown
5:56 AM 39.0 °F 34.8 °F 28.0 °F 65% 29.89 in - SSW 5.8 mph - N/A   Unknown
6:56 AM 39.9 °F 36.7 °F 28.0 °F 63% 29.88 in - South 4.6 mph - N/A   Unknown
7:56 AM 39.9 °F 35.8 °F 28.0 °F 63% 29.89 in - SW 5.8 mph - N/A   Unknown
8:56 AM 41.0 °F 37.1 °F 28.0 °F 60% 29.88 in - SSW 5.8 mph - N/A   Unknown
9:56 AM 44.1 °F 39.5 °F 28.0 °F 53% 29.88 in - SSW 8.1 mph - N/A   Unknown
10:56 AM 44.1 °F 40.8 °F 28.0 °F 53% 29.88 in - WSW 5.8 mph 17.3 mph N/A   Unknown
11:56 AM 46.0 °F 43.9 °F 27.0 °F 47% 29.89 in - Variable 4.6 mph - N/A   Unknown
12:56 PM 46.0 °F 41.0 °F 27.0 °F 47% 29.89 in - West 10.4 mph 17.3 mph N/A   Unknown
1:56 PM 46.9 °F - 28.0 °F 48% 29.88 in - WSW 10.4 mph 23.0 mph N/A   Unknown
2:56 PM 46.9 °F - 27.0 °F 46% 29.87 in - SW 9.2 mph - N/A   Unknown
3:56 PM 46.9 °F - 26.1 °F 44% 29.87 in - West 10.4 mph 18.4 mph N/A   Unknown
4:56 PM 46.0 °F 41.4 °F 26.1 °F 46% 29.88 in - WSW 9.2 mph - N/A   Unknown
5:56 PM 45.0 °F 42.6 °F 26.1 °F 48% 29.88 in - SW 4.6 mph - N/A   Unknown
6:56 PM 45.0 °F 41.8 °F 25.0 °F 46% 29.88 in - WSW 5.8 mph - N/A   Unknown
7:56 PM 44.1 °F 41.5 °F 24.1 °F 45% 29.88 in - Variable 4.6 mph - N/A   Unknown
8:56 PM 43.0 °F 40.3 °F 24.1 °F 47% 29.87 in - Variable 4.6 mph - N/A   Unknown
9:56 PM 43.0 °F 38.2 °F 25.0 °F 49% 29.86 in - WSW 8.1 mph - N/A   Unknown
10:56 PM 42.1 °F 36.1 °F 26.1 °F 53% 29.84 in - WSW 10.4 mph - N/A   Unknown
11:56 PM 42.1 °F 36.6 °F 26.1 °F 53% 29.83 in - WSW 9.2 mph 16.1 mph N/A   Unknown